Change the Weather History Date:

Saturday, November 12, 2011

  Actual Average Record
Temperature  
Mean Temperature 52 °F -  
Max Temperature 60 °F 56 °F 77 °F (2010)
Min Temperature 45 °F 34 °F 11 °F (1911)
Degree Days  
Heating Degree Days 12    
Growing Degree Days 2 (Base 50)    
Moisture  
Dew Point 41 °F    
Average Humidity 60    
Maximum Humidity 65    
Minimum Humidity 53    
Precipitation  
Precipitation 0.00 in - - ()
Sea Level Pressure  
Sea Level Pressure 29.92 in    
Wind  
Wind Speed 17 mph (SSW)    
Max Wind Speed 34 mph    
Max Gust Speed 44 mph    
Visibility 10 miles    
Events      
Averages and records for this station are not official NWS values.
T = Trace of Precipitation, MM = Missing Value Source: NWS Daily Summary

Daily Weather History Graph

Daily Weather History Graph

Search for Another Location

Airport or City:

Trip Planner

Search our weather history database for the weather conditions in past years. The results will help you decide how hot, cold, wet, or windy it might be!

Date:

Astronomy

Nov. 12, 2011 Rise Set
Actual Time 6:33 AM CST 4:48 PM CST
Civil Twilight 6:05 AM CST 5:15 PM CST
Nautical Twilight 5:34 AM CST 5:47 PM CST
Astronomical Twilight 5:03 AM CST 6:18 PM CST
Moon 6:05 PM CST (11/12) 8:13 AM CST (11/12)
Length of Visible Light 11h 09m
Length of Day
10h 14m
Full, 97% of the Moon is Illuminated
Nov 12
Full
Nov 18
Last Quarter
Nov 25
New
Dec 2
First Quarter
Dec 10
Full

Hourly Weather History & Observations

Time (CST) Temp. Windchill Dew Point Humidity Pressure Visibility Wind Dir Wind Speed Gust Speed Precip Events Conditions
12:52 AM 46.9 °F - 34.0 °F 61% 29.96 in 10.0 mi South 9.2 mph - N/A   Clear
1:52 AM 46.9 °F - 34.0 °F 61% 29.97 in 10.0 mi SSW 12.7 mph - N/A   Clear
2:52 AM 46.9 °F - 34.0 °F 61% 29.97 in 10.0 mi SSW 13.8 mph - N/A   Clear
3:52 AM 45.0 °F 39.7 °F 34.0 °F 65% 29.97 in 10.0 mi SSW 10.4 mph - N/A   Clear
4:52 AM 46.0 °F 40.2 °F 34.0 °F 63% 29.99 in 10.0 mi SSW 12.7 mph - N/A   Clear
5:52 AM 46.0 °F 40.6 °F 34.0 °F 63% 29.99 in 10.0 mi SSW 11.5 mph - N/A   Clear
7:52 AM 48.0 °F - 35.1 °F 61% 30.00 in 10.0 mi South 13.8 mph - N/A   Clear
8:52 AM 51.1 °F - 35.1 °F 54% 30.00 in 10.0 mi SSW 18.4 mph 23.0 mph N/A   Clear
9:52 AM 53.1 °F - 37.0 °F 55% 30.01 in 10.0 mi SSW 19.6 mph - N/A   Clear
10:52 AM 55.0 °F - 37.9 °F 53% 30.00 in 10.0 mi South 17.3 mph 25.3 mph N/A   Clear
11:52 AM 57.0 °F - 39.9 °F 53% 29.97 in 10.0 mi SSW 21.9 mph 33.4 mph N/A   Clear
12:52 PM 57.0 °F - 42.1 °F 57% 29.95 in 10.0 mi SSW 23.0 mph 29.9 mph N/A   Clear
1:52 PM 57.9 °F - 44.1 °F 60% 29.92 in 10.0 mi SSW 20.7 mph 31.1 mph N/A   Clear
2:52 PM 57.9 °F - 46.0 °F 65% 29.90 in 10.0 mi SSW 23.0 mph 36.8 mph N/A   Clear
3:52 PM 60.1 °F - 46.0 °F 60% 29.87 in 10.0 mi South 20.7 mph 35.7 mph N/A   Clear
4:52 PM 59.0 °F - 46.0 °F 62% 29.86 in 10.0 mi South 24.2 mph 34.5 mph N/A   Clear
5:52 PM 60.1 °F - 46.0 °F 60% 29.85 in 10.0 mi SSW 33.4 mph 41.4 mph N/A   Clear
6:52 PM 60.1 °F - 45.0 °F 57% 29.85 in 10.0 mi South 27.6 mph 38.0 mph N/A   Clear
7:52 PM 59.0 °F - 45.0 °F 60% 29.83 in 10.0 mi South 24.2 mph 33.4 mph N/A   Clear
8:52 PM 60.1 °F - 46.0 °F 60% 29.83 in 10.0 mi South 20.7 mph 36.8 mph N/A   Overcast
9:52 PM 60.1 °F - 46.0 °F 60% 29.81 in 10.0 mi SSW 27.6 mph 41.4 mph N/A   Mostly Cloudy
10:52 PM 60.1 °F - 46.0 °F 60% 29.79 in 10.0 mi SSW 34.5 mph 43.7 mph N/A   Scattered Clouds
11:52 PM 60.1 °F - 46.9 °F 62% 29.77 in 10.0 mi South 29.9 mph 39.1 mph N/A   Clear